EN

Hourly Weather Aachen

Today, 13 June, Sunday

Time Temperature Precipitation Wind Pressure Humidity
00:00 +10°C° 0 mm 1 mps 754 mmHg 89%
01:00 +9°C° 0 mm 1 mps 754 mmHg 90%
02:00 +9°C° 0 mm 1 mps 754 mmHg 91%
03:00 +7°C° 0 mm 0 mps 754 mmHg 92%
04:00 +9°C° 0 mm 0 mps 754 mmHg 88%
05:00 +11°C° 0 mm 1 mps 754 mmHg 84%
06:00 +12°C° 0 mm 1 mps 755 mmHg 80%
07:00 +14°C° 0 mm 1 mps 755 mmHg 73%
08:00 +15°C° 0 mm 1 mps 755 mmHg 65%
09:00 +18°C° 0 mm 1 mps 755 mmHg 57%
10:00 +18°C° 0 mm 2 mps 755 mmHg 54%
11:00 +19°C° 0 mm 2 mps 755 mmHg 51%
12:00 +20°C° 0 mm 2 mps 755 mmHg 48%
13:00 +21°C° 0 mm 2 mps 754 mmHg 48%
14:00 +21°C° 0 mm 2 mps 754 mmHg 47%
15:00 +23°C° 0 mm 2 mps 754 mmHg 47%
16:00 +21°C° 0 mm 2 mps 754 mmHg 53%
17:00 +20°C° 0 mm 2 mps 753 mmHg 60%
18:00 +21°C° 0 mm 1 mps 753 mmHg 66%
19:00 +19°C° 0 mm 1 mps 753 mmHg 68%
20:00 +16°C° 0 mm 1 mps 753 mmHg 71%
21:00 +14°C° 0 mm 1 mps 753 mmHg 74%
22:00 +14°C° 0 mm 1 mps 753 mmHg 74%
23:00 +13°C° 0 mm 1 mps 753 mmHg 73%

Tomorrow, 14 June, Monday

Time Temperature Precipitation Wind Pressure Humidity
00:00 +13°C° 0 mm 1 mps 752 mmHg 73%
01:00 +13°C° 0 mm 1 mps 752 mmHg 74%
02:00 +12°C° 0 mm 1 mps 752 mmHg 74%
03:00 +12°C° 0 mm 1 mps 752 mmHg 74%
04:00 +14°C° 0 mm 1 mps 752 mmHg 71%
05:00 +15°C° 0 mm 1 mps 752 mmHg 68%
06:00 +18°C° 0 mm 1 mps 752 mmHg 65%
07:00 +20°C° 0 mm 1 mps 752 mmHg 60%
08:00 +22°C° 0 mm 1 mps 751 mmHg 55%
09:00 +24°C° 0 mm 1 mps 751 mmHg 50%
10:00 +25°C° 0 mm 1 mps 751 mmHg 48%
11:00 +26°C° 0 mm 1 mps 751 mmHg 46%
12:00 +27°C° 0 mm 1 mps 750 mmHg 44%
13:00 +27°C° 0 mm 1 mps 750 mmHg 45%
14:00 +27°C° 0 mm 2 mps 750 mmHg 45%
15:00 +27°C° 0 mm 2 mps 750 mmHg 46%
16:00 +26°C° 0 mm 2 mps 749 mmHg 52%
17:00 +26°C° 0 mm 1 mps 749 mmHg 59%
18:00 +25°C° 0 mm 1 mps 749 mmHg 65%
19:00 +23°C° 0 mm 1 mps 749 mmHg 69%
20:00 +21°C° 0 mm 1 mps 749 mmHg 73%
21:00 +19°C° 0 mm 1 mps 749 mmHg 77%
22:00 +18°C° 0 mm 1 mps 749 mmHg 80%
23:00 +16°C° 0 mm 1 mps 749 mmHg 84%

Day after tomorrow, 15 June, Tuesday

Time Temperature Precipitation Wind Pressure Humidity
00:00 +15°C° 0 mm 1 mps 749 mmHg 88%
01:00 +15°C° 0 mm 1 mps 750 mmHg 90%
02:00 +15°C° 0 mm 1 mps 750 mmHg 91%
03:00 +15°C° 0 mm 1 mps 750 mmHg 93%
04:00 +16°C° 0 mm 1 mps 750 mmHg 91%
05:00 +18°C° 0 mm 1 mps 750 mmHg 89%
06:00 +19°C° 0 mm 1 mps 750 mmHg 87%
07:00 +20°C° 0 mm 1 mps 750 mmHg 82%
08:00 +20°C° 0 mm 2 mps 750 mmHg 77%
09:00 +23°C° 0 mm 2 mps 750 mmHg 72%
10:00 +23°C° 0 mm 2 mps 750 mmHg 69%
11:00 +24°C° 0 mm 3 mps 750 mmHg 66%
12:00 +25°C° 0 mm 3 mps 750 mmHg 63%
13:00 +25°C° 0 mm 3 mps 749 mmHg 63%
14:00 +25°C° 0 mm 3 mps 749 mmHg 63%
15:00 +25°C° 0 mm 3 mps 749 mmHg 63%
16:00 +24°C° 0 mm 3 mps 749 mmHg 68%
17:00 +22°C° 0 mm 3 mps 749 mmHg 72%
18:00 +21°C° 0 mm 3 mps 748 mmHg 77%
19:00 +20°C° 0 mm 2 mps 748 mmHg 80%
20:00 +19°C° 0 mm 2 mps 748 mmHg 82%
21:00 +18°C° 0 mm 1 mps 748 mmHg 85%
22:00 +18°C° 0 mm 1 mps 748 mmHg 87%
23:00 +18°C° 0 mm 1 mps 748 mmHg 89%

16 June, Wednesday

Time Temperature Precipitation Wind Pressure Humidity
00:00 +16°C° 0 mm 1 mps 747 mmHg 90%
01:00 +16°C° 0 mm 1 mps 747 mmHg 91%
02:00 +16°C° 0 mm 1 mps 747 mmHg 91%
03:00 +16°C° 0 mm 1 mps 747 mmHg 91%
04:00 +19°C° 0 mm 1 mps 746 mmHg 88%
05:00 +20°C° 0 mm 1 mps 746 mmHg 84%
06:00 +21°C° 0 mm 1 mps 746 mmHg 80%
07:00 +23°C° 0 mm 1 mps 746 mmHg 74%
08:00 +25°C° 0 mm 1 mps 746 mmHg 67%
09:00 +26°C° 0 mm 1 mps 746 mmHg 61%
10:00 +28°C° 0 mm 1 mps 746 mmHg 56%
11:00 +29°C° 0 mm 1 mps 746 mmHg 52%
12:00 +30°C° 0 mm 1 mps 745 mmHg 47%
13:00 +30°C° 0 mm 1 mps 745 mmHg 46%
14:00 +31°C° 0 mm 2 mps 745 mmHg 45%
15:00 +31°C° 0 mm 2 mps 744 mmHg 44%
16:00 +30°C° 0 mm 2 mps 744 mmHg 51%
17:00 +29°C° 0 mm 2 mps 744 mmHg 58%
18:00 +28°C° 0 mm 1 mps 744 mmHg 65%
19:00 +26°C° 0 mm 2 mps 744 mmHg 69%
20:00 +24°C° 0 mm 2 mps 744 mmHg 73%
21:00 +23°C° 0 mm 2 mps 744 mmHg 77%
22:00 +21°C° 0 mm 2 mps 744 mmHg 76%
23:00 +21°C° 0 mm 2 mps 744 mmHg 75%

17 June, Thursday

Time Temperature Precipitation Wind Pressure Humidity
00:00 +20°C° 0 mm 2 mps 743 mmHg 74%
01:00 +20°C° 0 mm 3 mps 743 mmHg 73%
02:00 +20°C° 0 mm 3 mps 743 mmHg 72%
03:00 +20°C° 0 mm 3 mps 743 mmHg 71%
04:00 +21°C° 0 mm 3 mps 743 mmHg 71%
05:00 +22°C° 0 mm 3 mps 743 mmHg 71%
06:00 +24°C° 0 mm 3 mps 743 mmHg 71%
07:00 +26°C° 0 mm 3 mps 743 mmHg 66%
08:00 +28°C° 0 mm 4 mps 743 mmHg 61%
09:00 +30°C° 0 mm 5 mps 743 mmHg 55%
10:00 +30°C° 0 mm 5 mps 743 mmHg 55%
11:00 +32°C° 0 mm 4 mps 743 mmHg 54%
12:00 +32°C° 0 mm 4 mps 743 mmHg 54%
13:00 +32°C° 0 mm 4 mps 743 mmHg 53%
14:00 +32°C° 0 mm 4 mps 743 mmHg 53%
15:00 +32°C° 0 mm 4 mps 743 mmHg 52%
16:00 +31°C° 0 mm 3 mps 743 mmHg 58%
17:00 +30°C° 0 mm 2 mps 743 mmHg 64%
18:00 +29°C° 0 mm 2 mps 744 mmHg 70%
19:00 +27°C° 0.1 mm 1 mps 744 mmHg 75%
20:00 +25°C° 0.1 mm 1 mps 744 mmHg 80%
21:00 +23°C° 0.1 mm 1 mps 744 mmHg 84%
22:00 +23°C° 0.3 mm 1 mps 744 mmHg 86%
23:00 +22°C° 0.3 mm 1 mps 744 mmHg 88%

18 June, Friday

Time Temperature Precipitation Wind Pressure Humidity
00:00 +21°C° 0.3 mm 1 mps 745 mmHg 90%
01:00 +21°C° 0.3 mm 1 mps 744 mmHg 92%
02:00 +21°C° 0.3 mm 1 mps 744 mmHg 93%
03:00 +21°C° 0.3 mm 1 mps 744 mmHg 94%
04:00 +21°C° 0.3 mm 1 mps 744 mmHg 92%
05:00 +22°C° 0.3 mm 1 mps 744 mmHg 90%
06:00 +23°C° 0.3 mm 1 mps 744 mmHg 89%
07:00 +25°C° 0.1 mm 1 mps 744 mmHg 81%
08:00 +26°C° 0.1 mm 1 mps 744 mmHg 74%
09:00 +28°C° 0.1 mm 1 mps 745 mmHg 67%
10:00 +29°C° 0 mm 2 mps 744 mmHg 60%
11:00 +30°C° 0 mm 3 mps 744 mmHg 54%
12:00 +32°C° 0 mm 4 mps 744 mmHg 47%
13:00 +30°C° 0 mm 5 mps 744 mmHg 53%
14:00 +29°C° 0 mm 5 mps 745 mmHg 58%
15:00 +28°C° 0 mm 6 mps 745 mmHg 64%
16:00 +27°C° 0 mm 6 mps 744 mmHg 65%
17:00 +26°C° 0 mm 7 mps 744 mmHg 67%
18:00 +23°C° 0 mm 7 mps 744 mmHg 68%
19:00 +22°C° 0 mm 7 mps 745 mmHg 68%
20:00 +21°C° 0 mm 6 mps 745 mmHg 69%
21:00 +20°C° 0 mm 5 mps 746 mmHg 69%
22:00 +19°C° 0 mm 4 mps 746 mmHg 71%
23:00 +18°C° 0 mm 4 mps 746 mmHg 74%
Show more